Regional Weather Roundup
Issued by NWS Jackson, KY

Home | Current Version | Previous Version | Graphics & Text | Print | Product List | Glossary On
Versions: 1 2 3 4 5 6 7 8 9 10 11 12 13 14 15 16 17 18 19 20 21 22 23 24 25 26
000
ASUS43 KJKL 130810
RWRJKL

EAST KENTUCKY HOURLY WEATHER ROUNDUP
NATIONAL WEATHER SERVICE JACKSON KY
300 AM EST WED DEC 13 2017

NOTE: "FAIR" INDICATES FEW OR NO CLOUDS BELOW 12,000 FEET WITH
NO SIGNIFICANT WEATHER AND/OR OBSTRUCTIONS TO VISIBILITY.

* THESE REPORTS ARE NOT UNDER NWS QUALITY CONTROL AND MAY NOT
  REPORT WEATHER SUCH AS PRECIPITATION AND FOG.

KYZ079-080-083-085-087-088-110-112-115-119-120-130900
...EASTERN KENTUCKY...

CITY           SKY/WX    TMP DP  RH WIND       PRES   REMARKS
JACKSON        CLEAR     19   7  59 VRB5      29.97S WCI  12
LONDON         CLEAR     20   9  62 W5        30.01F WCI  13
SOMERSET*      CLEAR     21   9  58 W8        30.05F WCI  12
MONTICELLO*    CLEAR     17  11  77 VRB7      30.07F WCI   8
WILLIAMSBURG*  SUNNY     21   7  53 CALM      30.03F
MIDDLESBORO*   CLEAR     24   8  50 CALM      30.03S
HARLAN APT*    SUNNY     21   7  53 SW3       29.99S
PIKE CO APT*     N/A     19   6  56 W6        29.96S WCI  11
BIG SANDY APT* SUNNY     20   8  58 W3        29.98R
MOREHEAD APT*  SUNNY     19   5  53 W5G13     30.00R WCI  13
$$

KYZ035-036-041-042-044-050-067-078-099-130900
...CENTRAL KENTUCKY...

CITY           SKY/WX    TMP DP  RH WIND       PRES   REMARKS
MT STERLING*   CLEAR     19  10  68 W7        30.02R WCI  10
FLEMING/MASON* CLEAR     15   7  72 SW8       30.00S WCI   4
DANVILLE*      PTCLDY    19  10  68 CALM      30.03S
LEXINGTON      PTCLDY    18   8  65 W5        30.01R WCI  11
FRANKFORT      CLEAR     19   7  59 SW6       30.00S WCI  11
LOUISVILLE     CLEAR     25   8  48 SW9       30.02F WCI  15
LEBANON*         N/A     19   9  63 S5        30.03F WCI  13
GLASGOW*       CLOUDY    20  13  74 CALM      30.05F
BOWLING GREEN  CLOUDY    23  11  60 S3        30.07F
$$

KYZ091>093-OHZ055-061-077-WVZ005-015-034-035-042-130900
...SOUTHERN OHIO/WEST VIRGINIA...

CITY           SKY/WX    TMP DP  RH WIND       PRES   REMARKS
COVINGTON      PTCLDY    17   9  70 SW5       29.96F WCI  10
COLUMBUS       FLURRIES  20  13  74 W10       29.92R WCI   9
DAYTON         MOCLDY    14   9  80 W10       29.93F WCI   1
WILMINGTON     CLEAR     15   9  76 W7        29.93S WCI   5
HUNTINGTON     CLEAR     20   7  57 SW8       29.97F WCI  10
CHARLESTON     CLOUDY    21   8  57 W12G18    29.94S WCI   9
PINEVILLE*       N/A     20   8  59 MISG      29.94S
BECKLEY        CLOUDY    14   5  67 W18G25    29.81R WCI  -3
BLUEFIELD      CLOUDY    14   3  61 W16G26    29.79R WCI  -2
LOGAN CO APT*    N/A     18   5  57 VRB6      29.91S WCI   9
$$

VAZ002-007-008-TNZ017-027-036-066-071-130900
...SOUTHWEST VIRGINIA/EAST TENNESSEE...

CITY           SKY/WX    TMP DP  RH WIND       PRES   REMARKS
WISE*          CLEAR     18   7  62 W6        29.89R WCI   9
JONESVILLE*      N/A     23   9  54 W6        30.02S WCI  16
ABINGDON*      CLEAR     22   5  48 W5        29.92R WCI  15
BRISTOL        CLEAR     22   6  50 W9        29.97R WCI  12
MORRISTOWN*    SUNNY     25   5  42 NW10      30.01S WCI  15
SEVIERVILLE*   SUNNY     25   9  50 CALM      30.05S
KNOXVILLE      CLEAR     27  11  51 CALM      30.05S
LAFOLLETTE*    SUNNY     25   7  46 VRB5      30.07S WCI  19
OAK RIDGE      CLEAR     26   8  46 CALM      30.07R
CROSSVILLE     CLOUDY    20   7  57 CALM      30.01S
NASHVILLE      CLEAR     24  14  65 S5        30.09F WCI  18
$$

...KEY TO REMARKS...
VSB - VISIBILITY IN MILES
WCI - WIND CHILL INDEX
HX  - HEAT INDEX

$$




USA.gov is the U.S. government's official web portal to all federal, state and local government web resources and services.